Weather History for KART - June, 2013

Change the Weather History Date:

Sunday, June 30, 2013

  Actual Average Record
Temperature  
Mean Temperature 68 °F 67 °F  
Max Temperature 80 °F 78 °F 89 °F (1964)
Min Temperature 56 °F 56 °F 45 °F (2007)
Degree Days  
Heating Degree Days 0 2  
Month to date heating degree days 103 108  
Since 1 June heating degree days 103 107  
Since 1 July heating degree days 6828 7583  
Cooling Degree Days 3 4  
Month to date cooling degree days 74 62  
Year to date cooling degree days 108 73  
Since 1 June cooling degree days 74 62  
Growing Degree Days 18 (Base 50)    
Moisture  
Dew Point 60 °F    
Average Humidity 73    
Maximum Humidity 93    
Minimum Humidity 52    
Precipitation  
Precipitation T in 0.08 in 1.42 in (1981)
Month to date precipitation 6.04 2.85  
Year to date precipitation 16.66 16.00  
Sea Level Pressure  
Sea Level Pressure 29.80 in    
Wind  
Wind Speed 5 mph (North)    
Max Wind Speed 10 mph    
Max Gust Speed 13 mph    
Visibility 10 miles    
Events      
T = Trace of Precipitation, MM = Missing Value Source: NWS Daily Summary

Daily Weather History Graph

Daily Weather History Graph

Search for Another Location

Airport or City:

Trip Planner

Search our weather history database for the weather conditions in past years. The results will help you decide how hot, cold, wet, or windy it might be!

Date:

Astronomy

Jun. 30, 2013 Rise Set
Actual Time 5:24 AM EDT 8:50 PM EDT
Civil Twilight 4:48 AM EDT 9:26 PM EDT
Nautical Twilight 4:01 AM EDT 10:14 PM EDT
Astronomical Twilight 3:01 AM EDT 11:13 PM EDT
Moon 12:32 AM EDT (6/30) 1:54 PM EDT (6/30)
Length of Visible Light 16h 38m
Length of Day
15h 26m
Last Quarter, 45% of the Moon is Illuminated
Jun 30
Last Quarter
Jul 8
New
Jul 15
First Quarter
Jul 22
Full
Jul 29
Last Quarter

Hourly Weather History & Observations

Time (EDT) Temp. Heat Index Dew Point Humidity Pressure Visibility Wind Dir Wind Speed Gust Speed Precip Events Conditions
12:56 AM 60.1 °F - 57.9 °F 93% 29.68 in 10.0 mi Calm Calm - N/A   Clear
1:56 AM 57.9 °F - 55.9 °F 93% 29.69 in 10.0 mi Calm Calm - N/A   Clear
2:56 AM 57.9 °F - 55.9 °F 93% 29.70 in 10.0 mi Calm Calm - N/A   Mostly Cloudy
3:56 AM 57.0 °F - 55.0 °F 93% 29.72 in 10.0 mi Calm Calm - N/A   Partly Cloudy
4:56 AM 57.0 °F - 55.0 °F 93% 29.74 in 10.0 mi Calm Calm - 0.01 in   Mostly Cloudy
5:12 AM 57.2 °F - 55.4 °F 94% 29.75 in 10.0 mi Calm Calm - N/A   Overcast
5:56 AM 59.0 °F - 57.0 °F 93% 29.75 in 10.0 mi East 3.5 mph - N/A   Overcast
6:11 AM 60.8 °F - 57.2 °F 88% 29.77 in 10.0 mi Calm Calm - N/A   Overcast
6:43 AM 60.8 °F - 57.2 °F 88% 29.78 in 10.0 mi Calm Calm - 0.00 in   Overcast
6:53 AM 62.6 °F - 59.0 °F 88% 29.78 in 10.0 mi NNE 4.6 mph - 0.00 in   Overcast
6:56 AM 62.1 °F - 59.0 °F 90% 29.77 in 10.0 mi NNE 4.6 mph - 0.00 in   Overcast
7:23 AM 62.6 °F - 60.8 °F 94% 29.78 in 10.0 mi Calm Calm - N/A   Overcast
7:39 AM 64.4 °F - 60.8 °F 88% 29.79 in 10.0 mi Calm Calm - N/A   Overcast
7:56 AM 64.9 °F - 61.0 °F 87% 29.79 in 10.0 mi Calm Calm - N/A   Overcast
8:56 AM 68.0 °F - 62.1 °F 81% 29.80 in 10.0 mi NE 5.8 mph - N/A   Scattered Clouds
9:56 AM 71.1 °F - 63.0 °F 75% 29.81 in 10.0 mi NE 5.8 mph - N/A   Scattered Clouds
10:56 AM 73.9 °F - 63.0 °F 68% 29.81 in 10.0 mi Variable 3.5 mph - N/A   Mostly Cloudy
11:49 AM 75.2 °F - 64.4 °F 69% 29.82 in 10.0 mi NNW 4.6 mph - N/A   Scattered Clouds
11:56 AM 75.9 °F - 64.0 °F 67% 29.81 in 10.0 mi Variable 4.6 mph - N/A   Scattered Clouds
12:15 PM 75.2 °F - 64.4 °F 69% 29.83 in 10.0 mi NW 5.8 mph - N/A   Mostly Cloudy
12:46 PM 77.0 °F - 64.4 °F 65% 29.83 in 10.0 mi Variable 5.8 mph - N/A   Mostly Cloudy
12:56 PM 75.9 °F - 64.0 °F 67% 29.83 in 10.0 mi WNW 5.8 mph - N/A   Overcast
1:14 PM 77.0 °F - 62.6 °F 61% 29.83 in 10.0 mi West 5.8 mph - N/A   Scattered Clouds
1:56 PM 78.1 °F - 62.1 °F 58% 29.82 in 10.0 mi West 5.8 mph - N/A   Clear
2:56 PM 79.0 °F - 63.0 °F 58% 29.82 in 10.0 mi West 5.8 mph - N/A   Clear
3:56 PM 80.1 °F 81.7 °F 64.0 °F 58% 29.82 in 10.0 mi NNW 6.9 mph - N/A   Partly Cloudy
4:56 PM 79.0 °F - 62.1 °F 56% 29.83 in 10.0 mi North 5.8 mph - N/A   Partly Cloudy
5:56 PM 79.0 °F - 61.0 °F 54% 29.83 in 10.0 mi NNE 6.9 mph - N/A   Mostly Cloudy
6:56 PM 78.1 °F - 59.0 °F 52% 29.84 in 10.0 mi NNE 8.1 mph - N/A   Clear
7:56 PM 75.9 °F - 60.1 °F 58% 29.86 in 10.0 mi North 4.6 mph - N/A   Clear
8:56 PM 73.0 °F - 62.1 °F 68% 29.87 in 10.0 mi NNE 4.6 mph - N/A   Clear
9:56 PM 71.1 °F - 61.0 °F 70% 29.90 in 10.0 mi NNE 6.9 mph - N/A   Clear
10:56 PM 66.9 °F - 61.0 °F 81% 29.91 in 10.0 mi NE 5.8 mph - N/A   Clear
11:56 PM 66.9 °F - 61.0 °F 81% 29.92 in 10.0 mi NE 5.8 mph - N/A   Clear